Wetterdaten: aktuell Montag, 23.09.2019 03:04
Datum Zeit Temp. I. Temp.2m Temp. 5cm Temp. Wz Feuchte I. Feuchte 2m Luftdruck Regen Wind Richtung Richtung Taupunkt Windchill Windben
23.09.2019 03:04 24,2 C 9,4 C 9,1 C 23,5 C 50 % 88 % 1012,4 hPa 0,0 l/m 3,1 km/h (1 Bft) S 180 7,5 C 9,4 C 3,4 km/h (1 Bft)
23.09.2019 03:02 24,2 C 9,4 C 9,1 C 23,5 C 51 % 88 % 1012,4 hPa 0,0 l/m 3,1 km/h (1 Bft) S 180 7,5 C 9,4 C 5,6 km/h (1 Bft)
23.09.2019 03:00 24,3 C 9,3 C 9,1 C 23,4 C 51 % 88 % 1012,4 hPa 0,0 l/m 3,2 km/h (1 Bft) S 180 7,4 C 9,3 C 5,6 km/h (1 Bft)
23.09.2019 02:58 24,3 C 9,3 C 8,8 C 23,5 C 51 % 88 % 1012,4 hPa 0,0 l/m 3,1 km/h (1 Bft) S-SO 157 7,4 C 9,3 C 5,8 km/h (2 Bft)
23.09.2019 02:56 24,2 C 9,3 C 8,7 C 23,5 C 51 % 88 % 1012,4 hPa 0,0 l/m 3,1 km/h (1 Bft) O-SO 112 7,4 C 9,3 C 5,8 km/h (2 Bft)
23.09.2019 02:54 24,3 C 9,3 C 8,7 C 23,4 C 51 % 88 % 1012,4 hPa 0,0 l/m 2,9 km/h (1 Bft) S-SO 157 7,4 C 9,3 C 5,3 km/h (1 Bft)
23.09.2019 02:52 24,3 C 9,3 C 8,6 C 23,5 C 51 % 87 % 1012,4 hPa 0,0 l/m 2,7 km/h (1 Bft) S-SO 157 7,2 C 9,3 C 3,9 km/h (1 Bft)
23.09.2019 02:50 24,3 C 9,3 C 8,7 C 23,4 C 51 % 87 % 1012,4 hPa 0,0 l/m 2,4 km/h (1 Bft) S-SW 202 7,2 C 9,3 C 7,5 km/h (2 Bft)
23.09.2019 02:48 24,3 C 9,3 C 8,6 C 23,5 C 51 % 87 % 1012,4 hPa 0,0 l/m 1,6 km/h (1 Bft) S 180 7,2 C 9,3 C 7,5 km/h (2 Bft)
23.09.2019 02:46 24,3 C 9,4 C 8,2 C 23,5 C 51 % 87 % 1012,2 hPa 0,0 l/m 1,1 km/h (1 Bft) S-SO 157 7,3 C 9,4 C 5,3 km/h (1 Bft)
23.09.2019 02:44 24,3 C 9,4 C 8,0 C 23,4 C 51 % 87 % 1012,2 hPa 0,0 l/m 0,5 km/h (0 Bft) SO 135 7,3 C 9,4 C 5,3 km/h (1 Bft)
23.09.2019 02:42 24,3 C 9,5 C 7,7 C 23,4 C 51 % 87 % 1012,2 hPa 0,0 l/m 0,5 km/h (0 Bft) S-SO 157 7,4 C 9,5 C 0,0 km/h (0 Bft)
23.09.2019 02:40 24,3 C 9,6 C 7,8 C 23,5 C 51 % 88 % 1012,2 hPa 0,0 l/m 1,0 km/h (0 Bft) SO 135 7,7 C 9,6 C 0,0 km/h (0 Bft)
23.09.2019 02:38 24,3 C 9,7 C 8,2 C 23,5 C 51 % 88 % 1012,2 hPa 0,0 l/m 1,6 km/h (1 Bft) SW 225 7,8 C 9,7 C 0,0 km/h (0 Bft)
23.09.2019 02:36 24,3 C 9,7 C 8,9 C 23,5 C 51 % 88 % 1012,2 hPa 0,0 l/m 2,4 km/h (1 Bft) W 270 7,8 C 9,7 C 0,0 km/h (0 Bft)
23.09.2019 02:34 24,3 C 9,8 C 9,1 C 23,5 C 51 % 88 % 1012,2 hPa 0,0 l/m 2,9 km/h (1 Bft) W-NW 292 7,9 C 9,8 C 7,5 km/h (2 Bft)
23.09.2019 02:32 24,2 C 9,8 C 9,4 C 23,5 C 51 % 88 % 1012,2 hPa 0,0 l/m 3,5 km/h (1 Bft) S-SW 202 7,9 C 9,8 C 9,2 km/h (2 Bft)
23.09.2019 02:30 24,3 C 9,8 C 9,6 C 23,5 C 51 % 88 % 1012,2 hPa 0,0 l/m 3,7 km/h (1 Bft) SW 225 7,9 C 9,8 C 9,2 km/h (2 Bft)
23.09.2019 02:28 24,3 C 9,8 C 9,5 C 23,5 C 51 % 88 % 1012,2 hPa 0,0 l/m 3,7 km/h (1 Bft) O-SO 112 7,9 C 9,8 C 11,3 km/h (2 Bft)
23.09.2019 02:26 24,2 C 9,8 C 9,5 C 23,5 C 51 % 88 % 1012,4 hPa 0,0 l/m 3,2 km/h (1 Bft) S-SO 157 7,9 C 9,8 C 11,3 km/h (2 Bft)
23.09.2019 02:24 24,3 C 9,8 C 9,4 C 23,5 C 51 % 88 % 1012,4 hPa 0,0 l/m 3,2 km/h (1 Bft) SO 135 7,9 C 9,8 C 11,3 km/h (2 Bft)
23.09.2019 02:22 24,2 C 9,8 C 9,3 C 23,5 C 51 % 88 % 1012,4 hPa 0,0 l/m 2,6 km/h (1 Bft) O-SO 112 7,9 C 9,8 C 7,7 km/h (2 Bft)
23.09.2019 02:20 24,2 C 9,8 C 9,2 C 23,5 C 51 % 88 % 1012,4 hPa 0,0 l/m 1,9 km/h (1 Bft) O 90 7,9 C 9,8 C 6,5 km/h (2 Bft)
23.09.2019 02:18 24,2 C 9,8 C 9,4 C 23,5 C 51 % 88 % 1012,4 hPa 0,0 l/m 1,4 km/h (1 Bft) S-SO 157 7,9 C 9,8 C 5,8 km/h (2 Bft)
23.09.2019 02:16 24,2 C 9,7 C 9,5 C 23,5 C 51 % 88 % 1012,4 hPa 0,0 l/m 1,3 km/h (1 Bft) S-SO 157 7,8 C 9,7 C 4,8 km/h (1 Bft)
23.09.2019 02:14 24,2 C 9,7 C 9,3 C 23,5 C 51 % 88 % 1012,4 hPa 0,0 l/m 1,1 km/h (1 Bft) S 180 7,8 C 9,7 C 3,6 km/h (1 Bft)
23.09.2019 02:12 24,2 C 9,6 C 8,9 C 23,5 C 51 % 87 % 1012,4 hPa 0,0 l/m 1,1 km/h (1 Bft) S 180 7,5 C 9,6 C 2,9 km/h (1 Bft)
23.09.2019 02:10 24,2 C 9,6 C 8,2 C 23,5 C 51 % 87 % 1012,4 hPa 0,0 l/m 1,0 km/h (0 Bft) O-NO 67 7,5 C 9,6 C 2,9 km/h (1 Bft)
23.09.2019 02:08 24,4 C 9,7 C 8,3 C 23,5 C 51 % 87 % 1012,4 hPa 0,0 l/m 1,0 km/h (0 Bft) O-NO 67 7,6 C 9,7 C 3,1 km/h (1 Bft)
23.09.2019 02:06 24,4 C 9,7 C 8,7 C 23,5 C 51 % 87 % 1012,3 hPa 0,0 l/m 1,3 km/h (1 Bft) NO 45 7,6 C 9,7 C 3,6 km/h (1 Bft)
23.09.2019 02:04 24,4 C 9,7 C 9,0 C 23,6 C 51 % 87 % 1012,3 hPa 0,0 l/m 1,1 km/h (1 Bft) O-NO 67 7,6 C 9,7 C 3,6 km/h (1 Bft)
23.09.2019 02:02 24,4 C 9,8 C 8,4 C 23,6 C 51 % 87 % 1012,3 hPa 0,0 l/m 1,0 km/h (0 Bft) O-NO 67 7,7 C 9,8 C 0,0 km/h (0 Bft)
23.09.2019 02:00 24,4 C 9,8 C 8,3 C 23,6 C 51 % 87 % 1012,3 hPa 0,0 l/m 1,1 km/h (1 Bft) NO 45 7,7 C 9,8 C 2,7 km/h (1 Bft)
23.09.2019 01:58 24,4 C 9,9 C 8,7 C 23,6 C 51 % 87 % 1012,3 hPa 0,0 l/m 1,8 km/h (1 Bft) O-NO 67 7,8 C 9,9 C 4,3 km/h (1 Bft)
23.09.2019 01:56 24,4 C 10,0 C 9,0 C 23,6 C 51 % 87 % 1012,3 hPa 0,0 l/m 1,6 km/h (1 Bft) N-NO 22 7,9 C 10,0 C 4,3 km/h (1 Bft)
23.09.2019 01:54 24,4 C 10,0 C 9,3 C 23,6 C 51 % 87 % 1012,3 hPa 0,0 l/m 1,8 km/h (1 Bft) N-NO 22 7,9 C 10,0 C 4,1 km/h (1 Bft)
23.09.2019 01:52 24,4 C 10,1 C 9,6 C 23,6 C 51 % 87 % 1012,3 hPa 0,0 l/m 2,1 km/h (1 Bft) O-NO 67 8,0 C 10,1 C 4,1 km/h (1 Bft)
23.09.2019 01:50 24,4 C 10,0 C 9,7 C 23,6 C 51 % 87 % 1012,3 hPa 0,0 l/m 2,1 km/h (1 Bft) N-NO 22 7,9 C 10,0 C 7,2 km/h (2 Bft)
23.09.2019 01:48 24,4 C 10,0 C 9,8 C 23,6 C 51 % 87 % 1012,3 hPa 0,0 l/m 1,6 km/h (1 Bft) O 90 7,9 C 10,0 C 7,2 km/h (2 Bft)
23.09.2019 01:46 24,4 C 9,9 C 9,5 C 23,7 C 51 % 88 % 1012,4 hPa 0,0 l/m 1,3 km/h (1 Bft) S 180 8,0 C 9,9 C 4,3 km/h (1 Bft)
23.09.2019 01:44 24,4 C 9,9 C 9,2 C 23,7 C 51 % 87 % 1012,4 hPa 0,0 l/m 1,0 km/h (0 Bft) O 90 7,8 C 9,9 C 4,3 km/h (1 Bft)
23.09.2019 01:42 24,4 C 9,9 C 8,7 C 23,6 C 51 % 87 % 1012,4 hPa 0,0 l/m 0,6 km/h (0 Bft) SO 135 7,8 C 9,9 C 3,9 km/h (1 Bft)
23.09.2019 01:40 24,4 C 10,0 C 8,9 C 23,7 C 51 % 87 % 1012,4 hPa 0,0 l/m 0,5 km/h (0 Bft) O-SO 112 7,9 C 10,0 C 0,0 km/h (0 Bft)
23.09.2019 01:38 24,4 C 10,0 C 9,0 C 23,7 C 51 % 87 % 1012,4 hPa 0,0 l/m 0,8 km/h (0 Bft) S-SW 202 7,9 C 10,0 C 4,1 km/h (1 Bft)
23.09.2019 01:36 24,4 C 10,0 C 9,2 C 23,7 C 51 % 87 % 1012,4 hPa 0,0 l/m 1,4 km/h (1 Bft) S 180 7,9 C 10,0 C 4,1 km/h (1 Bft)
23.09.2019 01:34 24,4 C 10,0 C 9,3 C 23,7 C 51 % 87 % 1012,4 hPa 0,0 l/m 1,8 km/h (1 Bft) S 180 7,9 C 10,0 C 0,0 km/h (0 Bft)
23.09.2019 01:32 24,4 C 10,0 C 9,4 C 23,7 C 51 % 87 % 1012,4 hPa 0,0 l/m 2,4 km/h (1 Bft) W-SW 247 7,9 C 10,0 C 4,8 km/h (1 Bft)
23.09.2019 01:30 24,4 C 10,0 C 9,7 C 23,6 C 51 % 87 % 1012,4 hPa 0,0 l/m 2,6 km/h (1 Bft) O 90 7,9 C 10,0 C 4,8 km/h (1 Bft)
23.09.2019 01:28 24,4 C 10,0 C 9,7 C 23,6 C 51 % 87 % 1012,4 hPa 0,0 l/m 2,7 km/h (1 Bft) O-NO 67 7,9 C 10,0 C 9,9 km/h (2 Bft)
23.09.2019 01:26 24,4 C 10,0 C 9,6 C 23,7 C 51 % 87 % 1012,5 hPa 0,0 l/m 2,1 km/h (1 Bft) SO 135 7,9 C 10,0 C 7,0 km/h (2 Bft)
23.09.2019 01:24 24,4 C 10,0 C 9,5 C 23,6 C 51 % 87 % 1012,5 hPa 0,0 l/m 1,6 km/h (1 Bft) S-SO 157 7,9 C 10,0 C 7,0 km/h (2 Bft)
23.09.2019 01:22 24,4 C 10,0 C 9,5 C 23,6 C 51 % 87 % 1012,5 hPa 0,0 l/m 1,1 km/h (1 Bft) S-SO 157 7,9 C 10,0 C 6,8 km/h (2 Bft)
23.09.2019 01:20 24,4 C 10,0 C 9,3 C 23,6 C 51 % 87 % 1012,5 hPa 0,0 l/m 0,8 km/h (0 Bft) S-SO 157 7,9 C 10,0 C 3,4 km/h (1 Bft)
23.09.2019 01:18 24,4 C 9,9 C 8,7 C 23,6 C 51 % 88 % 1012,5 hPa 0,0 l/m 0,8 km/h (0 Bft) S-SO 157 8,0 C 9,9 C 3,4 km/h (1 Bft)
23.09.2019 01:16 24,4 C 10,0 C 8,9 C 23,6 C 51 % 87 % 1012,5 hPa 0,0 l/m 0,8 km/h (0 Bft) O-NO 67 7,9 C 10,0 C 0,0 km/h (0 Bft)
23.09.2019 01:14 24,4 C 10,0 C 9,1 C 23,6 C 51 % 87 % 1012,5 hPa 0,0 l/m 1,1 km/h (1 Bft) S-SO 157 7,9 C 10,0 C 0,0 km/h (0 Bft)
23.09.2019 01:12 24,4 C 10,0 C 9,3 C 23,6 C 51 % 87 % 1012,5 hPa 0,0 l/m 1,4 km/h (1 Bft) NO 45 7,9 C 10,0 C 2,7 km/h (1 Bft)
23.09.2019 01:10 24,5 C 10,0 C 9,4 C 23,6 C 51 % 87 % 1012,5 hPa 0,0 l/m 1,9 km/h (1 Bft) O 90 7,9 C 10,0 C 3,6 km/h (1 Bft)
23.09.2019 01:08 24,4 C 10,0 C 9,5 C 23,6 C 51 % 87 % 1012,5 hPa 0,0 l/m 2,3 km/h (1 Bft) S-SO 157 7,9 C 10,0 C 8,4 km/h (2 Bft)
23.09.2019 01:06 24,4 C 9,9 C 9,6 C 23,6 C 51 % 88 % 1011,9 hPa 0,0 l/m 2,4 km/h (1 Bft) S-SO 157 8,0 C 9,9 C 5,1 km/h (1 Bft)
23.09.2019 01:04 24,4 C 9,9 C 9,5 C 23,7 C 51 % 88 % 1011,9 hPa 0,0 l/m 2,6 km/h (1 Bft) S 180 8,0 C 9,9 C 4,3 km/h (1 Bft)
23.09.2019 01:02 24,5 C 9,8 C 9,5 C 23,7 C 51 % 88 % 1011,9 hPa 0,0 l/m 2,3 km/h (1 Bft) NO 45 7,9 C 9,8 C 4,3 km/h (1 Bft)
23.09.2019 01:00 24,5 C 9,8 C 9,5 C 23,6 C 51 % 87 % 1011,9 hPa 0,0 l/m 2,1 km/h (1 Bft) O-SO 112 7,7 C 9,8 C 5,6 km/h (1 Bft)
23.09.2019 00:58 24,5 C 9,7 C 9,4 C 23,6 C 51 % 87 % 1011,9 hPa 0,0 l/m 1,9 km/h (1 Bft) SO 135 7,6 C 9,7 C 5,6 km/h (1 Bft)
23.09.2019 00:56 24,5 C 9,7 C 9,2 C 23,7 C 51 % 87 % 1011,9 hPa 0,0 l/m 1,8 km/h (1 Bft) SO 135 7,6 C 9,7 C 4,3 km/h (1 Bft)
23.09.2019 00:54 24,5 C 9,7 C 9,1 C 23,7 C 51 % 87 % 1011,9 hPa 0,0 l/m 1,6 km/h (1 Bft) S-SO 157 7,6 C 9,7 C 3,9 km/h (1 Bft)
23.09.2019 00:52 24,5 C 9,7 C 8,9 C 23,7 C 51 % 87 % 1011,9 hPa 0,0 l/m 1,6 km/h (1 Bft) SO 135 7,6 C 9,7 C 5,3 km/h (1 Bft)
23.09.2019 00:50 24,5 C 9,7 C 8,9 C 23,7 C 51 % 87 % 1011,9 hPa 0,0 l/m 1,8 km/h (1 Bft) O 90 7,6 C 9,7 C 5,3 km/h (1 Bft)
23.09.2019 00:48 24,5 C 9,7 C 8,7 C 23,7 C 51 % 87 % 1011,9 hPa 0,0 l/m 1,9 km/h (1 Bft) S-SO 157 7,6 C 9,7 C 7,7 km/h (2 Bft)
23.09.2019 00:46 24,5 C 9,7 C 9,0 C 23,7 C 51 % 87 % 1012,2 hPa 0,0 l/m 2,1 km/h (1 Bft) O-SO 112 7,6 C 9,7 C 4,3 km/h (1 Bft)
23.09.2019 00:44 24,5 C 9,7 C 8,6 C 23,7 C 51 % 87 % 1012,2 hPa 0,0 l/m 1,9 km/h (1 Bft) SO 135 7,6 C 9,7 C 4,3 km/h (1 Bft)
23.09.2019 00:42 24,5 C 9,7 C 9,1 C 23,7 C 51 % 87 % 1012,2 hPa 0,0 l/m 2,1 km/h (1 Bft) O-SO 112 7,6 C 9,7 C 3,4 km/h (1 Bft)
23.09.2019 00:40 24,5 C 9,7 C 9,1 C 23,7 C 51 % 87 % 1012,2 hPa 0,0 l/m 2,1 km/h (1 Bft) SW 225 7,6 C 9,7 C 5,3 km/h (1 Bft)
23.09.2019 00:38 24,5 C 9,7 C 9,1 C 23,7 C 51 % 87 % 1012,2 hPa 0,0 l/m 1,9 km/h (1 Bft) SO 135 7,6 C 9,7 C 6,8 km/h (2 Bft)
23.09.2019 00:36 24,5 C 9,7 C 9,1 C 23,7 C 51 % 87 % 1012,2 hPa 0,0 l/m 1,8 km/h (1 Bft) SW 225 7,6 C 9,7 C 5,8 km/h (2 Bft)
23.09.2019 00:34 24,5 C 9,7 C 9,0 C 23,7 C 51 % 87 % 1012,2 hPa 0,0 l/m 1,4 km/h (1 Bft) N-NW 337 7,6 C 9,7 C 3,9 km/h (1 Bft)
23.09.2019 00:32 24,5 C 9,7 C 8,6 C 23,7 C 51 % 87 % 1012,2 hPa 0,0 l/m 1,1 km/h (1 Bft) O-SO 112 7,6 C 9,7 C 4,6 km/h (1 Bft)
23.09.2019 00:30 24,5 C 9,7 C 8,6 C 23,7 C 51 % 87 % 1012,2 hPa 0,0 l/m 1,0 km/h (0 Bft) S-SO 157 7,6 C 9,7 C 6,8 km/h (2 Bft)
23.09.2019 00:28 24,6 C 9,7 C 8,7 C 23,7 C 51 % 87 % 1012,2 hPa 0,0 l/m 0,6 km/h (0 Bft) O-SO 112 7,6 C 9,7 C 6,8 km/h (2 Bft)
23.09.2019 00:26 24,5 C 9,7 C 8,9 C 23,7 C 51 % 87 % 1012,2 hPa 0,0 l/m 0,5 km/h (0 Bft) S-SO 157 7,6 C 9,7 C 3,4 km/h (1 Bft)
23.09.2019 00:24 24,5 C 9,7 C 8,1 C 23,8 C 51 % 87 % 1012,2 hPa 0,0 l/m 0,5 km/h (0 Bft) O-NO 67 7,6 C 9,7 C 3,4 km/h (1 Bft)
23.09.2019 00:22 24,6 C 9,7 C 7,7 C 23,7 C 51 % 87 % 1012,2 hPa 0,0 l/m 0,5 km/h (0 Bft) O 90 7,6 C 9,7 C 0,0 km/h (0 Bft)
23.09.2019 00:20 24,6 C 9,7 C 7,6 C 23,8 C 51 % 87 % 1012,2 hPa 0,0 l/m 0,3 km/h (0 Bft) NO 45 7,6 C 9,7 C 2,7 km/h (1 Bft)
23.09.2019 00:18 24,6 C 9,8 C 7,4 C 23,8 C 52 % 87 % 1012,2 hPa 0,0 l/m 0,3 km/h (0 Bft) NO 45 7,7 C 9,8 C 2,7 km/h (1 Bft)
23.09.2019 00:16 24,6 C 9,8 C 7,5 C 23,8 C 51 % 87 % 1012,2 hPa 0,0 l/m 0,2 km/h (0 Bft) NO 45 7,7 C 9,8 C 2,7 km/h (1 Bft)
23.09.2019 00:14 24,6 C 9,8 C 7,6 C 23,8 C 51 % 86 % 1012,2 hPa 0,0 l/m 0,2 km/h (0 Bft) O 90 7,6 C 9,8 C 3,4 km/h (1 Bft)
23.09.2019 00:12 24,6 C 10,2 C 8,3 C 23,8 C 51 % 86 % 1012,2 hPa 0,0 l/m 0,0 km/h (0 Bft) O 90 8,0 C 10,2 C 3,4 km/h (1 Bft)
23.09.2019 00:10 24,6 C 10,2 C 8,3 C 23,8 C 51 % 86 % 1012,2 hPa 0,0 l/m 0,2 km/h (0 Bft) S-SW 202 8,0 C 10,2 C 0,0 km/h (0 Bft)
23.09.2019 00:08 24,6 C 10,2 C 8,3 C 23,8 C 52 % 86 % 1012,2 hPa 0,0 l/m 0,2 km/h (0 Bft) S-SW 202 8,0 C 10,2 C 0,0 km/h (0 Bft)
23.09.2019 00:06 24,6 C 10,2 C 8,3 C 23,8 C 51 % 86 % 1012,4 hPa 0,0 l/m 0,2 km/h (0 Bft) S-SW 202 8,0 C 10,2 C 0,0 km/h (0 Bft)
23.09.2019 00:04 24,6 C 10,2 C 8,3 C 23,8 C 51 % 86 % 1012,4 hPa 0,0 l/m 0,2 km/h (0 Bft) S-SW 202 8,0 C 10,2 C 0,0 km/h (0 Bft)
23.09.2019 00:02 24,6 C 10,2 C 8,3 C 23,8 C 52 % 86 % 1012,4 hPa 0,0 l/m 0,2 km/h (0 Bft) S-SW 202 8,0 C 10,2 C 0,0 km/h (0 Bft)
23.09.2019 00:00 24,6 C 10,3 C 8,3 C 23,9 C 51 % 86 % 1012,4 hPa 0,0 l/m 0,5 km/h (0 Bft) O-SO 112 8,1 C 10,3 C 0,0 km/h (0 Bft)
_ Min-Zeit 02:10 02:48 00:18 02:42 03:04 00:00 00:48 - 00:12 - - 02:48 02:48 00:00
Minimum _ 24,2 C 9,3 C 7,4 C 23,4 C 50 % 86 % 1011,9 hPa - 0,0 km/h (0 Bft) - - 7,2 C 9,3 C 0,0 km/h (0 Bft)
_ Max-Zeit 00:00 00:00 01:48 00:00 00:02 01:02 01:08 00:00 02:28 - - 00:00 00:00 02:24
Maximum _ 24,6 C 10,3 C 9,8 C 23,9 C 52 % 88 % 1012,5 hPa 0,0 l/m 3,7 km/h
O-SO (1 Bft)
- - 8,1 C 10,3 C 11,3 km/h
SO (2 Bft)
Durchschnitt _ 24,4 C 9,8 C 8,9 C 23,6 C 51 % 87 % 1012,3 hPa #0,0 l/m 1,6 km/h (1 Bft) S-SO - 7,8 C 9,8 C 4,4 km/h (1 Bft)